Location: Killam
(52.7910°N, 111.8608°W)
Time: 13:56:25
(UTC+00:00)

BlueWalker 3 - Pass Details

Date: 27 January 2026
Orbit: 450 x 461 km, 53.2° (Epoch: 11 February)

Event Time Altitude Azimuth Distance (km) Brightness Sun altitude
Rises 01:25:26 0° 238° (WSW) 2,453 7.0 -12.5°
Reaches altitude 10° 01:27:35 10° 234° (SW) 1,581 5.6 -12.8°
Maximum altitude 01:31:03 54° 157° (SSE) 557 2.0 -13.3°
Enters shadow 01:32:54 24° 89° (E) 966 2.8 -13.6°
